| time (UTC) | temp C | wind direction | speed KPH | gust KPH | rain 1hr cm | rain 24hr cm | rain mn cm | humidity % | barometer mb |
| 20260906131537 | 22 | 68 | 1.6 | 4.8 | 0.00 | 0.00 | 0.00 | 88 | 1018.8 |
| 20260906130517 | 22 | 68 | 1.6 | 4.8 | 0.00 | 0.00 | 0.00 | 88 | 1019.0 |
| 20260906125517 | 22 | 0.0 | 3.2 | 0.00 | 0.00 | 0.00 | 88 | 1018.8 | |
| 20260906124517 | 22 | 45 | 1.6 | 4.8 | 0.00 | 0.00 | 0.00 | 88 | 1018.7 |
| 20260906123517 | 22 | 0.0 | 0.0 | 0.00 | 0.00 | 0.00 | 89 | 1018.5 | |
| 20260906122517 | 22 | 0.0 | 0.0 | 0.00 | 0.00 | 0.00 | 89 | 1018.3 | |
| 20260906121517 | 22 | 0.0 | 0.0 | 0.00 | 0.00 | 0.00 | 89 | 1018.2 | |
| 20260906120557 | 22 | 0.0 | 0.0 | 0.00 | 0.00 | 0.00 | 89 | 1017.9 | |
| 20260906115637 | 22 | 0.0 | 0.0 | 0.00 | 0.00 | 0.00 | 89 | 1018.0 | |
| 20260906114517 | 22 | 0.0 | 0.0 | 0.00 | 0.00 | 0.00 | 88 | 1017.7 | |
| 20260906113516 | 22 | 0.0 | 0.0 | 0.00 | 0.00 | 0.00 | 88 | 1017.5 | |
| 20260906112517 | 22 | 0.0 | 0.0 | 0.00 | 0.00 | 0.00 | 88 | 1017.3 | |
| 20260906111517 | 22 | 0.0 | 0.0 | 0.00 | 0.00 | 0.00 | 88 | 1017.3 | |
| 20260906110516 | 22 | 0.0 | 0.0 | 0.00 | 0.00 | 0.00 | 88 | 1017.3 | |
| 20260906105517 | 22 | 0.0 | 0.0 | 0.00 | 0.00 | 0.00 | 88 | 1017.3 | |
| 20260906104516 | 22 | 0.0 | 0.0 | 0.00 | 0.00 | 0.00 | 88 | 1017.3 | |
| 20260906103516 | 22 | 0.0 | 3.2 | 0.00 | 0.00 | 0.00 | 88 | 1017.2 | |
| 20260906102517 | 22 | 0.0 | 1.6 | 0.00 | 0.00 | 0.00 | 88 | 1016.9 | |
| 20260906101516 | 22 | 90 | 1.6 | 6.4 | 0.00 | 0.00 | 0.00 | 88 | 1016.8 |
| 20260906100516 | 22 | 0.0 | 1.6 | 0.00 | 0.00 | 0.00 | 88 | 1017.0 | |
| 20260906095516 | 22 | 90 | 1.6 | 4.8 | 0.00 | 0.00 | 0.00 | 88 | 1016.9 |
| 20260906094517 | 22 | 0.0 | 3.2 | 0.00 | 0.00 | 0.00 | 87 | 1016.9 | |
| 20260906093516 | 22 | 68 | 1.6 | 4.8 | 0.00 | 0.00 | 0.00 | 87 | 1016.6 |
| 20260906092516 | 22 | 0.0 | 4.8 | 0.00 | 0.00 | 0.00 | 87 | 1016.7 | |
| 20260906091516 | 22 | 90 | 1.6 | 4.8 | 0.00 | 0.00 | 0.00 | 87 | 1017.0 |
| 20260906090556 | 22 | 0.0 | 3.2 | 0.00 | 0.00 | 0.00 | 86 | 1017.0 | |
| 20260906085516 | 22 | 90 | 1.6 | 3.2 | 0.00 | 0.00 | 0.00 | 86 | 1016.9 |
| 20260906084556 | 22 | 0.0 | 6.4 | 0.00 | 0.00 | 0.00 | 86 | 1016.8 | |
| 20260906083516 | 22 | 0.0 | 3.2 | 0.00 | 0.00 | 0.00 | 85 | 1016.9 | |
| 20260906082536 | 22 | 68 | 1.6 | 3.2 | 0.00 | 0.00 | 0.00 | 85 | 1016.7 |
| 20260906081516 | 22 | 68 | 1.6 | 4.8 | 0.00 | 0.00 | 0.00 | 85 | 1016.8 |
| 20260906080516 | 22 | 0.0 | 3.2 | 0.00 | 0.00 | 0.00 | 84 | 1016.6 | |
| 20260906075516 | 22 | 90 | 1.6 | 6.4 | 0.00 | 0.00 | 0.00 | 84 | 1016.7 |
| 20260906074516 | 22 | 68 | 1.6 | 4.8 | 0.00 | 0.00 | 0.00 | 84 | 1016.9 |
| 20260906073516 | 22 | 90 | 3.2 | 9.7 | 0.00 | 0.00 | 0.00 | 84 | 1017.0 |
| 20260906072636 | 22 | 68 | 1.6 | 6.4 | 0.00 | 0.00 | 0.00 | 84 | 1017.0 |
| 20260906071516 | 23 | 68 | 3.2 | 6.4 | 0.00 | 0.00 | 0.00 | 84 | 1017.1 |
| 20260906070516 | 23 | 68 | 3.2 | 17.7 | 0.00 | 0.00 | 0.00 | 84 | 1017.1 |
| 20260906065516 | 23 | 0.0 | 4.8 | 0.00 | 0.00 | 0.00 | 84 | 1017.3 | |
| 20260906064516 | 23 | 0.0 | 0.0 | 0.00 | 0.00 | 0.00 | 83 | 1017.2 | |
| 20260906063516 | 23 | 0.0 | 0.0 | 0.00 | 0.00 | 0.00 | 83 | 1017.4 | |
| 20260906062516 | 23 | 68 | 1.6 | 6.4 | 0.00 | 0.00 | 0.00 | 83 | 1017.2 |
| 20260906061516 | 24 | 68 | 1.6 | 4.8 | 0.00 | 0.00 | 0.00 | 83 | 1017.0 |
| 20260906060516 | 24 | 90 | 1.6 | 6.4 | 0.00 | 0.00 | 0.00 | 82 | 1016.9 |
| 20260906055516 | 24 | 90 | 3.2 | 9.7 | 0.00 | 0.00 | 0.00 | 82 | 1016.9 |
| 20260906054516 | 25 | 45 | 1.6 | 6.4 | 0.00 | 0.00 | 0.00 | 82 | 1016.8 |
| 20260906053516 | 25 | 68 | 3.2 | 11.3 | 0.00 | 0.00 | 0.00 | 82 | 1016.8 |
| 20260906052516 | 25 | 68 | 1.6 | 11.3 | 0.00 | 0.00 | 0.00 | 81 | 1016.7 |
| 20260906051516 | 25 | 0.0 | 0.0 | 0.00 | 0.00 | 0.00 | 81 | 1016.7 | |
| 20260906050516 | 25 | 0.0 | 0.0 | 0.00 | 0.00 | 0.00 | 81 | 1016.4 | |
| 20260906045517 | 25 | 0.0 | 0.0 | 0.00 | 0.00 | 0.00 | 80 | 1016.4 | |
| 20260906044517 | 26 | 0.0 | 4.8 | 0.00 | 0.00 | 0.00 | 80 | 1016.3 | |
| 20260906043517 | 26 | 68 | 1.6 | 6.4 | 0.00 | 0.00 | 0.00 | 80 | 1016.3 |
| 20260906042517 | 26 | 90 | 3.2 | 11.3 | 0.00 | 0.00 | 0.00 | 80 | 1016.2 |
| 20260906041517 | 26 | 68 | 1.6 | 4.8 | 0.00 | 0.00 | 0.00 | 80 | 1016.1 |
| 20260906040516 | 26 | 68 | 1.6 | 4.8 | 0.00 | 0.00 | 0.00 | 79 | 1016.0 |
| 20260906035517 | 27 | 0.0 | 0.0 | 0.00 | 0.00 | 0.00 | 79 | 1015.9 | |
| 20260906034517 | 27 | 0.0 | 0.0 | 0.00 | 0.00 | 0.00 | 78 | 1015.9 | |
| 20260906033557 | 27 | 0.0 | 4.8 | 0.00 | 0.00 | 0.00 | 78 | 1016.0 | |
| 20260906032516 | 27 | 23 | 1.6 | 6.4 | 0.00 | 0.00 | 0.00 | 78 | 1016.0 |
| 20260906031517 | 27 | 45 | 3.2 | 6.4 | 0.00 | 0.00 | 0.00 | 77 | 1015.7 |
| 20260906030516 | 28 | 338 | 3.2 | 12.9 | 0.00 | 0.00 | 0.00 | 77 | 1015.6 |
| 20260906025517 | 28 | 45 | 3.2 | 14.5 | 0.00 | 0.00 | 0.00 | 77 | 1015.6 |
| 20260906024516 | 28 | 45 | 1.6 | 6.4 | 0.00 | 0.00 | 0.00 | 77 | 1015.5 |
| 20260906023516 | 28 | 45 | 3.2 | 6.4 | 0.00 | 0.00 | 0.00 | 77 | 1015.3 |
| 20260906022556 | 29 | 45 | 1.6 | 6.4 | 0.00 | 0.00 | 0.00 | 77 | 1015.0 |
| 20260906021516 | 29 | 0.0 | 3.2 | 0.00 | 0.00 | 0.00 | 77 | 1014.9 | |
| 20260906020557 | 30 | 0.0 | 0.0 | 0.00 | 0.00 | 0.00 | 76 | 1014.8 | |
| 20260906015516 | 30 | 0.0 | 0.0 | 0.00 | 0.00 | 0.00 | 76 | 1014.6 | |
| 20260906014516 | 30 | 0.0 | 1.6 | 0.00 | 0.00 | 0.00 | 76 | 1014.4 | |
| 20260906013516 | 30 | 0.0 | 3.2 | 0.00 | 0.00 | 0.00 | 75 | 1014.3 | |
| 20260906012616 | 31 | 0.0 | 1.6 | 0.00 | 0.00 | 0.00 | 74 | 1014.2 | |
| 20260906011537 | 31 | 0.0 | 0.0 | 0.00 | 0.00 | 0.00 | 73 | 1014.2 | |
| 20260906010516 | 31 | 0.0 | 0.0 | 0.00 | 0.00 | 0.00 | 72 | 1014.1 | |
| 20260906005516 | 32 | 0.0 | 1.6 | 0.00 | 0.00 | 0.00 | 71 | 1014.0 | |
| 20260906004516 | 32 | 0.0 | 0.0 | 0.00 | 0.00 | 0.00 | 70 | 1013.8 | |
| 20260906003516 | 32 | 0.0 | 0.0 | 0.00 | 0.00 | 0.00 | 69 | 1013.6 | |
| 20260906002516 | 33 | 0.0 | 0.0 | 0.00 | 0.00 | 0.00 | 68 | 1013.6 | |
| 20260906001536 | 33 | 0.0 | 0.0 | 0.00 | 0.00 | 0.00 | 67 | 1013.6 | |
| 20260906000516 | 33 | 0.0 | 0.0 | 0.00 | 0.00 | 0.00 | 66 | 1013.9 | |
| 20260905235516 | 34 | 0.0 | 1.6 | 0.00 | 0.00 | 0.00 | 65 | 1013.7 | |
| 20260905234536 | 34 | 0.0 | 3.2 | 0.00 | 0.00 | 0.00 | 65 | 1013.6 | |
| 20260905233516 | 34 | 0.0 | 1.6 | 0.00 | 0.00 | 0.00 | 65 | 1013.8 | |
| 20260905232516 | 34 | 0.0 | 1.6 | 0.00 | 0.00 | 0.00 | 65 | 1013.8 | |
| 20260905231516 | 34 | 23 | 1.6 | 3.2 | 0.00 | 0.00 | 0.00 | 64 | 1013.8 |
| 20260905230516 | 34 | 0.0 | 3.2 | 0.00 | 0.00 | 0.00 | 65 | 1013.7 | |
| 20260905225516 | 34 | 45 | 1.6 | 4.8 | 0.00 | 0.00 | 0.00 | 65 | 1013.6 |
| 20260905224516 | 34 | 315 | 1.6 | 4.8 | 0.00 | 0.00 | 0.00 | 63 | 1013.5 |
| 20260905223516 | 35 | 315 | 1.6 | 6.4 | 0.00 | 0.00 | 0.00 | 63 | 1013.5 |
| 20260905222516 | 35 | 0.0 | 3.2 | 0.00 | 0.00 | 0.00 | 61 | 1013.6 | |
| 20260905221516 | 35 | 315 | 1.6 | 6.4 | 0.00 | 0.00 | 0.00 | 61 | 1013.6 |
| 20260905220516 | 35 | 0 | 3.2 | 8.0 | 0.00 | 0.00 | 0.00 | 59 | 1013.5 |
| 20260905215516 | 35 | 315 | 1.6 | 8.0 | 0.00 | 0.00 | 0.00 | 60 | 1013.5 |
| 20260905214516 | 35 | 315 | 1.6 | 6.4 | 0.00 | 0.00 | 0.00 | 60 | 1013.6 |
| 20260905213516 | 35 | 315 | 1.6 | 4.8 | 0.00 | 0.00 | 0.00 | 61 | 1013.6 |
| 20260905212516 | 35 | 23 | 3.2 | 11.3 | 0.00 | 0.00 | 0.00 | 60 | 1013.5 |
| 20260905211516 | 36 | 338 | 1.6 | 6.4 | 0.00 | 0.00 | 0.00 | 60 | 1013.5 |
| 20260905210516 | 35 | 293 | 1.6 | 6.4 | 0.00 | 0.00 | 0.00 | 59 | 1013.6 |
| 20260905205516 | 35 | 293 | 1.6 | 4.8 | 0.00 | 0.00 | 0.00 | 60 | 1013.8 |
| 20260905204516 | 35 | 248 | 1.6 | 3.2 | 0.00 | 0.00 | 0.00 | 61 | 1013.8 |
| 20260905203515 | 35 | 315 | 3.2 | 6.4 | 0.00 | 0.00 | 0.00 | 61 | 1013.9 |
| 20260905202516 | 35 | 0 | 3.2 | 8.0 | 0.00 | 0.00 | 0.00 | 60 | 1013.9 |
| 20260905201516 | 35 | 270 | 3.2 | 6.4 | 0.00 | 0.00 | 0.00 | 61 | 1014.0 |
| 20260905200516 | 35 | 338 | 3.2 | 8.0 | 0.00 | 0.00 | 0.00 | 60 | 1014.0 |
| 20260905195515 | 35 | 293 | 1.6 | 3.2 | 0.00 | 0.00 | 0.00 | 60 | 1013.9 |
| 20260905194516 | 35 | 315 | 3.2 | 6.4 | 0.00 | 0.00 | 0.00 | 58 | 1014.1 |
| 20260905193516 | 36 | 338 | 1.6 | 8.0 | 0.00 | 0.00 | 0.00 | 56 | 1014.2 |
| 20260905192515 | 36 | 68 | 1.6 | 4.8 | 0.00 | 0.00 | 0.00 | 55 | 1014.3 |
| 20260905191516 | 36 | 248 | 3.2 | 6.4 | 0.00 | 0.00 | 0.00 | 57 | 1014.4 |
| 20260905190515 | 36 | 180 | 1.6 | 6.4 | 0.00 | 0.00 | 0.00 | 57 | 1014.4 |
| 20260905185515 | 36 | 248 | 3.2 | 4.8 | 0.00 | 0.00 | 0.00 | 57 | 1014.5 |
| 20260905184515 | 36 | 270 | 3.2 | 6.4 | 0.00 | 0.00 | 0.00 | 55 | 1014.7 |
| 20260905183516 | 36 | 270 | 3.2 | 14.5 | 0.00 | 0.00 | 0.00 | 55 | 1014.8 |
| 20260905182515 | 35 | 248 | 3.2 | 11.3 | 0.00 | 0.00 | 0.00 | 57 | 1014.8 |
| 20260905181515 | 36 | 0.0 | 3.2 | 0.00 | 0.00 | 0.00 | 59 | 1014.8 | |
| 20260905180535 | 36 | 68 | 3.2 | 6.4 | 0.00 | 0.00 | 0.00 | 57 | 1014.9 |
| 20260905175516 | 35 | 315 | 1.6 | 6.4 | 0.00 | 0.00 | 0.00 | 60 | 1015.0 |
| 20260905174515 | 35 | 315 | 1.6 | 3.2 | 0.00 | 0.00 | 0.00 | 59 | 1015.1 |
| 20260905173535 | 35 | 270 | 3.2 | 8.0 | 0.00 | 0.00 | 0.00 | 59 | 1015.1 |
| 20260905172515 | 35 | 270 | 1.6 | 6.4 | 0.00 | 0.00 | 0.00 | 60 | 1015.2 |
| 20260905171515 | 35 | 248 | 3.2 | 9.7 | 0.00 | 0.00 | 0.00 | 60 | 1015.3 |
| 20260905170515 | 35 | 248 | 1.6 | 4.8 | 0.00 | 0.00 | 0.00 | 64 | 1015.4 |
| 20260905165515 | 35 | 248 | 1.6 | 4.8 | 0.00 | 0.00 | 0.00 | 64 | 1015.6 |
| 20260905164535 | 35 | 0.0 | 3.2 | 0.00 | 0.00 | 0.00 | 62 | 1015.6 | |
| 20260905163515 | 34 | 0.0 | 3.2 | 0.00 | 0.00 | 0.00 | 64 | 1015.6 | |
| 20260905162515 | 33 | 338 | 1.6 | 3.2 | 0.00 | 0.00 | 0.00 | 63 | 1015.4 |
| 20260905161515 | 33 | 0.0 | 1.6 | 0.00 | 0.00 | 0.00 | 68 | 1015.5 | |
| 20260905160515 | 32 | 0.0 | 3.2 | 0.00 | 0.00 | 0.00 | 69 | 1015.6 | |
| 20260905155515 | 32 | 0.0 | 3.2 | 0.00 | 0.00 | 0.00 | 68 | 1015.7 | |
| 20260905154535 | 31 | 293 | 1.6 | 3.2 | 0.00 | 0.00 | 0.00 | 68 | 1015.6 |
| 20260905153515 | 30 | 0.0 | 0.0 | 0.00 | 0.00 | 0.00 | 75 | 1015.5 | |
| 20260905152515 | 29 | 0.0 | 0.0 | 0.00 | 0.00 | 0.00 | 79 | 1015.4 | |
| 20260905151517 | 29 | 0.0 | 0.0 | 0.00 | 0.00 | 0.00 | 78 | 1015.2 | |
| 20260905150537 | 28 | 0.0 | 3.2 | 0.00 | 0.00 | 0.00 | 79 | 1015.2 | |
| 20260905145537 | 28 | 0.0 | 3.2 | 0.00 | 0.00 | 0.00 | 80 | 1015.0 | |
| 20260905144517 | 28 | 0.0 | 1.6 | 0.00 | 0.00 | 0.00 | 81 | 1015.1 | |
| 20260905143517 | 28 | 0.0 | 1.6 | 0.00 | 0.00 | 0.00 | 83 | 1015.0 | |
| 20260905142517 | 28 | 0.0 | 0.0 | 0.00 | 0.00 | 0.00 | 82 | 1015.2 | |
| 20260905141517 | 27 | 0.0 | 1.6 | 0.00 | 0.00 | 0.00 | 83 | 1015.3 | |
| 20260905140517 | 27 | 0.0 | 1.6 | 0.00 | 0.00 | 0.00 | 84 | 1015.2 | |
| 20260905135517 | 27 | 0.0 | 0.0 | 0.00 | 0.00 | 0.00 | 85 | 1015.2 | |
| 20260905134517 | 26 | 0.0 | 1.6 | 0.00 | 0.00 | 0.00 | 86 | 1015.3 | |
| 20260905133537 | 26 | 0.0 | 0.0 | 0.00 | 0.00 | 0.00 | 87 | 1015.3 | |
| 20260905132517 | 26 | 0.0 | 1.6 | 0.00 | 0.00 | 0.00 | 88 | 1015.3 |